Regional Weather Roundup
Issued by NWS

Home | Current Version | Previous Version | Graphics & Text | Print | Product List | Glossary Off
Versions: 1 2 3 4 5 6 7 8 9 10 11 12 13 14 15 16 17 18 19 20 21 22 23 24 25 26 27 28 29 30 31 32 33 34 35 36 37 38 39 40 41 42 43 44 45 46 47 48 49 50

000
ASUS43 KTOP 012259
RWRKS

WEATHER ROUNDUP FOR KANSAS
NATIONAL WEATHER SERVICE GOODLAND KS
600 PM CDT SAT AUG 01 2015

NOTE:  "FAIR" INDICATES FEW OR NO CLOUDS BELOW 12,000 FEET WITH NO
SIGNIFICANT WEATHER AND/OR OBSTRUCTIONS TO VISIBILITY.

KSZ001>006-013>018-027>032-041>047-020000-
NORTHWEST KANSAS

CITY           SKY/WX    TMP DP  RH WIND       PRES   REMARKS
GOODLAND       MOSUNNY   89  49  25 SE13      30.03F
HAYS           MOSUNNY   91  59  33 SE16      29.97F
HILL CITY      SUNNY     94  56  27 SE9       29.97F
RUSSELL        SUNNY     93  58  30 SE12G17   29.95F
$$

KSZ061>065-074>080-084>089-020000-
SOUTHWEST KANSAS

CITY           SKY/WX    TMP DP  RH WIND       PRES   REMARKS
DODGE CITY     SUNNY     88  61  40 SE12      30.00F
ELKHART          N/A     87  66  49 SE12        N/A
GARDEN CITY    SUNNY     88  63  43 SE15      30.00F
GREAT BEND     MOSUNNY   91  63  38 S12       29.96F
LIBERAL        MOSUNNY   88  64  45 S15       29.99F
$$

KSZ066>073-081>083-090>101-020000-
SOUTHEAST KANSAS

CITY           SKY/WX    TMP DP  RH WIND       PRES   REMARKS
CHANUTE        MOSUNNY   91  69  48 S10       29.97F HX  96
COFFEYVILLE    PTSUNNY   92  68  45 S10       29.96F HX  96
HUTCHINSON     SUNNY     91  67  44 S13       29.97F
MEDICINE LODGE   N/A     91  69  48 S5        29.96F HX  96
NEWTON         MOSUNNY   88  66  48 S10       30.00F
PARSONS        MOSUNNY   90  71  53 VRB5      29.98F HX  96
WICHITA INTL   MOSUNNY   90  69  50 S7        29.97F
WICHITA JABRA  SUNNY     89  68  49 S7        29.97F
WINFIELD       SUNNY     88  70  55 S10       29.98F
$$

KSZ007>012-019>026-033>040-048>060-102>105-020000-
NORTHEAST KANSAS

CITY           SKY/WX    TMP DP  RH WIND       PRES   REMARKS
CONCORDIA      MOSUNNY   91  66  43 SE6       29.94F
EMPORIA        MOSUNNY   89  66  46 E5        29.96F
LAWRENCE       SUNNY     91  68  46 SW6       29.95F HX  95
MANHATTAN      SUNNY     93  65  39 S7        29.95F HX  95
OLATHE IND     SUNNY     91  65  41 VRB7      29.98F
OLATHE EXE     SUNNY     90  65  43 W3        29.97F
SALINA         SUNNY     94  63  35 S8        29.95F HX  95
TOPEKA BILLARD SUNNY     92  66  42 SW6       29.95F
TOPEKA FORBES  SUNNY     93  67  42 S6        29.96F HX  96
$$


USA.gov is the U.S. government's official web portal to all federal, state and local government web resources and services.